Location: Passau
(48.5830°N, 13.4830°E)
Time: 19:49:03
(UTC+02:00)

S-56A Canister/Altair - Pass Details

Date: 22 May 2024
Orbit: 637 x 2489 km, 38.9° (Epoch: 15 June)

Event Time Altitude Azimuth Distance (km) Brightness Sun altitude
Rises 13:25:51 0° 270° (W) 4,145 11.4 61.6°
Reaches altitude 10° 13:31:21 10° 239° (WSW) 2,716 10.8 61.4°
Maximum altitude 13:33:09 11° 222° (SW) 2,483 10.7 61.3°
Drops below altitude 10° 13:34:50 10° 205° (SSW) 2,451 10.8 61.2°
Sets 13:38:58 0° 170° (S) 3,116 11.0 61.0°
